Погода в Сент-Джорджесе

Гренада     12°03′13″N   61°45′05″W
темп.,
°C
ветер,
м/с
пор.,
м/с
влажн.,
%
обл.,
%
осадки,
мм/ч
давл.,
гПа
погр.,
м
10 апреля, сб
сб1023:00+25всв578365 0.1 1014528
02:00+25всв57848 0.1 1012493
05:00+25всв4683100 0.0 1012423
08:00+27всв5674100 0.0 1014807
11:00+28в4567100 0.0 1014848
14:00+27всв4571100 0.0 1011703
17:00+26всв4576100 0.0 1010766
20:00+25всв467995 0.1 1012469
11 апреля, вс
вс1123:00+25всв578093 0.0 1013638
02:00+25всв4780100 0.1 1011559
05:00+25всв467997 0.0 1011496
08:00+26всв567282 0.0 1013897
11:00+28в566593 0.0 1013904
14:00+28в556669 0.0 1011909
17:00+27всв5672100 0.1 1011773
20:00+26всв578099 0.2 1013565
12 апреля, пн
пн1223:00+26всв698187 0.1 1013761
02:00+25в5886100 0.9 1011622
05:00+25в4688100 2.7 1012399
08:00+26в4782100 4.0 1014678
11:00+27вюв5679100 0.3 1014714
14:00+26вюв578097 3.5 1012703
17:00+26в477990 0.3 1011698
20:00+26в478281 0.3 1013624
13 апреля, вт
вт1323:00+26в588586 0.0 1013591
02:00+26вюв688397 0.0 1012702
05:00+26вюв698430 0.0 1012699
08:00+27вюв6884100 0.3 1014758
11:00+28юв687563 0.4 1014863
14:00+27вюв5783100 2.1 1012626
17:00+27вюв677779 1.4 1011683
20:00+26в488633 1.7 1013459
14 апреля, ср
ср1423:00+26вюв598787 0.0 1014633
02:00+26вюв588776 0.0 1012667
05:00+26вюв6988100 0.9 1012617
08:00+27вюв688129 1.1 1014757
11:00+28вюв79765 0.1 1014874
14:00+28вюв7975100 0.1 1012930
17:00+27вюв7980100 0.0 1011856
20:00+26в71082100 0.0 1013834